Flag for Brazil Weather past 2 weeks in Belo Horizonte, Minas Gerais, Brazil

Now
64 °F

Rain. Partly cloudy.


Feels Like: 64 °F
Forecast: 60 / 75 °F
Wind: 5 mph from East

Location: Belo Horizonte Airport

Current Time: May 29, 2015 at 2:22:18 AM

Latest Report: May 29, 2015 at 2:00 AM


Visibility: 2 mi

Pressure: 30.04 "Hg

Humidity: 88%

Dew point: 61 °F

Location of Belo HorizonteLocation

Historic Weather in Belo Horizonte — Graph

°F

Belo Horizonte temperature yesterday

Maximum temperature yesterday: 82 °F (at 3:00 PM)
Minimum temperature yesterday: 32 °F (at 10:00 AM)
Average temperature yesterday: 68 °F

Past Weeks' High & Low Weather Summary

 TemperatureHumidityPressure
High88 °F (May 20, 5:00 PM)100% (May 28, 10:00 AM)30.36 "Hg (May 28, 10:00 AM)
Low32 °F (May 28, 10:00 AM)32% (May 25, 3:00 PM)30.01 "Hg (May 28, 2:00 PM)
Average67 °F70%30.19 "Hg
* Reported May 14 1:00 AM — May 29 1:00 AM, Belo Horizonte, Weather by CustomWeather, © 2015

Note: Actual official high and low records may vary slightly from our data, if they occured in-between our weather recording intervals... More about our weather records

Advertising

Belo Horizonte weather history for previous 24 hours

 ConditionsComfort  
Time TempWeatherWind HumidityBarometerVisibility
1:00 AM
Fri, May 29
66 °FClear.No wind78%30.04 "Hg10 mi
12:00 AM66 °FClear.3 mph78%30.07 "Hg10 mi
11:00 PM
Thu, May 28
66 °FClear.7 mph78%30.07 "Hg10 mi
10:00 PM66 °FClear.8 mph78%30.07 "Hg10 mi
9:00 PM68 °FClear.8 mph64%30.07 "Hg10 mi
8:00 PM70 °FClear.10 mph64%30.04 "Hg10 mi
7:00 PM73 °FClear.2 mph57%30.04 "Hg10 mi
6:00 PM75 °FPassing clouds.2 mph50%30.01 "HgN/A
5:00 PM79 °FPassing clouds.5 mph45%30.01 "HgN/A
4:00 PM81 °FPassing clouds.12 mph39%30.01 "HgN/A
3:00 PM82 °FScattered clouds.12 mph37%30.01 "HgN/A
2:00 PM81 °FScattered clouds.12 mph45%30.01 "HgN/A
1:00 PM81 °FPartly sunny.10 mph45%30.04 "HgN/A
12:00 PM79 °FScattered clouds.8 mph51%30.07 "HgN/A
11:00 AM75 °FSunny.8 mph61%30.09 "Hg10 mi
10:00 AM32 °FSunny.6 mph100%30.12 "Hg10 mi
9:00 AM68 °FSunny.1 mph83%30.15 "Hg10 mi
8:00 AM63 °FClear.2 mph88%30.12 "Hg4 mi
7:00 AM61 °FClear.2 mph94%30.12 "Hg5 mi
6:00 AM61 °FClear.1 mph94%30.12 "Hg5 mi
5:00 AM61 °FClear.2 mph94%30.09 "Hg10 mi
4:00 AM61 °FClear.3 mph94%30.09 "Hg10 mi
3:00 AM63 °FClear.5 mph88%30.09 "Hg10 mi
2:00 AM63 °FClear.5 mph88%30.09 "Hg10 mi
Weather by CustomWeather, © 2015

See weather overviewHow to use our weather pages